Location: Oakhurst
(33.6448°N, 111.9543°W)
Time: 02:54:19
(UTC+00:00)

STRAND 1 - Visible Passes

Search period start: 05 August 2021 00:00
Search period end: 15 August 2021 00:00
Orbit: 767 x 781 km, 98.4° (Epoch: 04 August)

Date Brightness Start Highest point End Pass type
(mag) Time Alt. Az. Time Alt. Az. Time Alt. Az.
05 Aug ? 03:56:59 10° NNW 04:00:08 17° WNW 04:03:17 10° WSW visible
06 Aug ? 03:21:46 10° N 03:26:22 36° WNW 03:30:59 10° SW visible
07 Aug ? 02:47:21 10° N 02:52:27 80° WNW 02:57:32 10° SSW visible
08 Aug ? 03:53:49 10° NNW 03:57:09 18° WNW 04:00:29 10° WSW visible
09 Aug ? 03:18:42 10° N 03:23:23 38° WNW 03:28:03 10° SW visible
10 Aug ? 02:44:20 10° NNE 02:49:26 86° WNW 02:54:32 10° SSW visible
11 Aug ? 03:50:39 10° NNW 03:54:10 19° WNW 03:57:40 10° WSW visible
12 Aug ? 03:15:38 10° N 03:20:23 41° WNW 03:25:07 10° SW visible
13 Aug ? 02:41:19 10° NNE 02:46:26 89° E 02:51:32 10° SSW visible
14 Aug ? 03:47:31 10° NNW 03:51:11 20° WNW 03:54:51 10° WSW visible
